Regional Weather Roundup
Issued by NWS Wilmington, NC

Home | Current Version | Previous Version | Text Only | Print | Product List | Glossary On
Versions: 1 2 3 4 5 6 7 8 9 10 11 12 13 14 15 16 17 18 19 20 21 22 23 24 25 26 27
000
ASUS42 KILM 210713
RWRILM
RWRILM
REGIONAL HOURLY WEATHER ROUNDUP
NATIONAL WEATHER SERVICE WILMINGTON NC
200 AM EST WED FEB 21 2018

NOTE: "FAIR" INDICATES FEW OR NO CLOUDS BELOW 12,000 FEET WITH NO
SIGNIFICANT WEATHER AND/OR OBSTRUCTIONS TO VISIBILITY.

...............WFO WILMINGTON COUNTY WARNING AREA...............

......COASTAL NC AND SC COUNTIES......

CITY           SKY/WX    TMP DP  RH WIND       PRES   REMARKS
WILMINGTON     FOG       62  62 100 S3        30.46F VSB 3/4
N MYRTLE BEACH FAIR      65  64  97 S6        30.45S
MYRTLE BEACH   FOG       61  61 100 SE5       30.46F VSB 1/4

......INLAND NC AND SC COUNTIES.......

CITY           SKY/WX    TMP DP  RH WIND       PRES   REMARKS
LUMBERTON      CLOUDY    62  62 100 CALM      30.43S FOG
ELIZABETHTOWN  NOT AVBL
WHITEVILLE     FAIR      65  64  96 S5        30.44S
FLORENCE       FOG       63  63 100 CALM      30.43  VSB 1/2
DARLINGTON     FAIR      62  62 100 S3        30.44S
KINGSTREE      FOG       61  59  94 CALM      30.43S VSB 3/4
HARTSVILLE     MOCLDY    63  63 100 CALM      30.43S FOG
BENNETTSVILLE  FAIR      63  63 100 CALM      30.43S FOG
CONWAY         FAIR      63  63 100 CALM      30.45S FOG
GEORGETOWN     FOG       59  59 100 CALM      30.45S VSB 1/2
MARION           N/A    N/A N/A N/A CALM      30.44S

....................REST OF NORTH CAROLINA......................

.........EASTERN NC.........

CITY           SKY/WX    TMP DP  RH WIND       PRES   REMARKS
CAPE HATTERAS  CLOUDY    65  65 100 S7        30.48F
JACKSONVILLE   FOG       63  63 100 S3        30.46  VSB 3/4
MOREHEAD CITY  FAIR      65  63  93 S10       30.47F
KENANSVILLE    FOG       63  63 100 S3        30.46S VSB 3/4
NEW BERN       FAIR      65  65 100 S5        30.47F
ELIZABETH CITY FAIR      65  65 100 S10       30.45F

.........CENTRAL NC.........

CITY           SKY/WX    TMP DP  RH WIND       PRES   REMARKS
RALEIGH DURHAM MOCLDY    63  62  97 S9        30.43F
ROCKY MOUNT    CLOUDY    63  63 100 S5        30.44S FOG
ROANOKE RAPIDS NOT AVBL
FAYETTEVILLE   FAIR      62  62 100 S5        30.43F FOG
HOFFMAN        FOG       61  61 100 CALM      30.43S VSB 3/4

.........WESTERN NC.........

CITY           SKY/WX    TMP DP  RH WIND       PRES   REMARKS
CHARLOTTE      CLOUDY    65  63  93 S8        30.42S
GREENSBORO     MOCLDY    59  59 100 SW7       30.41S
HICKORY        NOT AVBL
BOONE          NOT AVBL
ASHEVILLE      NOT AVBL

.....................REST OF SOUTH CAROLINA.....................

.........EASTERN SC.........

CITY           SKY/WX    TMP DP  RH WIND       PRES   REMARKS
CHARLESTON     FAIR      66  65  96 SE8       30.42S
BEAUFORT MCAS  FAIR      70  68  93 SE9       30.41S
HILTON HEAD    FAIR      64  64 100 S5G12     30.42S

.........CENTRAL SC.........

CITY           SKY/WX    TMP DP  RH WIND       PRES   REMARKS
COLUMBIA       CLOUDY    68  67  96 S3        30.42R
ORANGEBURG     FAIR      64  63  96 CALM      30.43  FOG
SUMTER SHAW    FOG       64  63  99 CALM      30.41S VSB 3/8

.........WESTERN SC.........

CITY           SKY/WX    TMP DP  RH WIND       PRES   REMARKS
GREENVILLE     NOT AVBL
ROCK HILL      CLOUDY    64  62  93 S6        30.41F
ANDERSON       CLOUDY    66  64  93 S9        30.40S
CLEMSON        NOT AVBL
GREENWOOD      CLOUDY    67  64  90 S10       30.42S


...................COASTAL AND OFFSHORE REPORTS..................

................LOCAL PIERS AND NC RESERVE................


STATION/POSITION TIME  SKY/WX   TEMP    WIND        PRES    VSBY
                                AIR SEA DIR/SP/G
                 (UTC)          (F)     (DEG/KT/KT) (MB)    (MI)
JOHNY MRCER PIER 0648            60 57  170/  1/  2 1031.7F
NC RESRV MASNBRO NOT AVBL
OCEAN CREST PIER NOT AVBL
SPRINGMAID  PIER 0648                               1034.3F


................COASTAL AND OFFSHORE BUOYS................


STATION/POSITION TIME  SKY/WX   TEMP    WIND        PRES    VSBY
                                AIR SEA DIR/SP/G
                 (UTC)          (F)     (DEG/KT/KT) (MB)    (MI)
DIMNDSHOAL 41025 0650            72 71  190/ 12/ 14 1032.5F
WVE H/P(F/S)=  4/11 SWL H/P/D(F/S/D)=  3/ 60/11

CAPE LOOKOUT     0700                   190/  6/  7 1032.0F
ONSLOW BAY 41036 NOT AVBL
ONSLOW BAY 41064 0608            70 69  180/  6/  8 1032.1
ONSLOW BAY 41159 0630               69                N/A
WVE H/P(F/S)=  4/ 6 SWL H/P/D(F/S/D)=  2/ 90/11

MASNBO INL 41110 0629               57                N/A
WVE H/P(F/S)=  3/ 6 SWL H/P/D(F/S/D)=  2/100/12

WILM HARBR 41108 0630               57                N/A
WVE H/P(F/S)=  3/ 6 SWL H/P/D(F/S/D)=  2/130/13

27SE WRITB 41037 0608            70 69  180/ 10/ 14 1031.9F
FRYING PAN 41013 0700            71 70  170/  6/  8 1031.1
SUNST NRSH 41024 0608            58 56  150/  4/  6 1031.2F
CAPRS NRSH 41029 0608            59 60  130/  6/ 10 1030.3F
EDISTO     41004 0700            71 68  150/  8/ 10 1030.2


..........OFFSHORE BUOYS BEYOND 100 NM OFFSHORE...........
.....IN A TRIANGLE---HAT TO BERMUDA TO BAHAMAS TO HAT.....


STATION/POSITION TIME  SKY/WX   TEMP    WIND        PRES    VSBY
                                AIR SEA DIR/SP/G
                 (UTC)          (F)     (DEG/KT/KT) (MB)    (MI)
150E HAT   41001 NOT AVBL
W BERMUDA  41048 0700            69 69  110/ 14/ 17 1034.4
ATLANTIC S 41049 0650            73 75   70/ 17/ 23 1031.2F
WVE H/P(F/S)= 11/16 SWL H/P/D(F/S/D)=  8/ 30/16

E BAHAMAS  41046 0700            76 77   70/ 21/ 29 1026.1
NE BAHAMAS 41047 0650                   100/ 17/ 21 1030.5F
WVE H/P(F/S)=  8/ 7 SWL H/P/D(F/S/D)=  3/ 60/12

120E CANVRL41010 NOT AVBL

END




USA.gov is the U.S. government's official web portal to all federal, state and local government web resources and services.